weather.gov     
National Weather Service

Terminal Aerodrome Forecast
NWS Homepage
This page is being discontinued on March 12, 2014.
The same data is available at this site. Please update your bookmarks.
Thank you, and we apologize for the inconvenience.
Please send an email to SR-SRH.Webmaster@noaa.gov with any concerns.


Current Version
Previous Version:    01  02  03  04  05  06  07  08  09  10  11  12  13  14  15  16  17  18  19  20  21  22  23  24  25  26  27  28  29  30  
   31  32  33  34  35  36  37  38  39  40  41  42  43  44  45  
[Printable]
600
FTUS43 KLSX 011700
TAFUIN
TAF
KUIN 011720Z 0118/0218 VRB03KT 1/2SM SN OVC004
     FM012000 32015G25KT 2SM -SN BR OVC007
     FM020000 34022G32KT 4SM -SN BR OVC010
     FM020500 34018G24KT P6SM OVC012
     FM021000 33012KT P6SM BKN015
     FM021500 30008KT P6SM BKN020=


U.S. Dept. of Commerce
NOAA National Weather Service
1325 East West Highway
Silver Spring, MD 20910
E-mail: w-nws.webmaster@noaa.gov
Page last modified: May 16, 2007
NATIONAL WEATHER SERVICE: for Safety, for Work, for Fun - FOR LIFE